Location: Brahman Valley
(40.6513°N, 111.8855°W)
Time: 09:46:12
(UTC+00:00)

Tiros 1 despin weight - Pass Details

Date: 14 May 2021
Orbit: 594 x 641 km, 48.2° (Epoch: 22 June)

Event Time Altitude Azimuth Distance (km) Brightness Sun altitude
Rises 04:47:56 0° 266° (W) 2,926 ? -20.5°
Reaches altitude 10° 04:50:22 10° 274° (W) 2,023 ? -20.8°
Maximum altitude 04:54:47 41° 345° (NNW) 931 ? -21.3°
Drops below altitude 10° 04:59:14 10° 56° (NE) 2,033 ? -21.8°
Sets 05:01:41 0° 63° (ENE) 2,942 ? -22.1°
